Change the Weather History Date:

Thursday, May 23, 2013

  Actual Average Record
Temperature  
Mean Temperature 59 °F 66 °F  
Max Temperature 71 °F 78 °F 94 °F (2012)
Min Temperature 47 °F 54 °F 46 °F (2001)
Degree Days  
Heating Degree Days 6 3  
Month to date heating degree days 157 110  
Since 1 July heating degree days 5175 5291  
Cooling Degree Days 0 4  
Month to date cooling degree days 46 48  
Year to date cooling degree days 63 65  
Growing Degree Days 10 (Base 50)    
Moisture  
Dew Point 51 °F    
Average Humidity 73    
Maximum Humidity 89    
Minimum Humidity 57    
Precipitation  
Precipitation 0.00 in 0.18 in 1.22 in (2007)
Month to date precipitation 2.55 3.11  
Year to date precipitation 8.60 9.83  
Sea Level Pressure  
Sea Level Pressure 30.14 in    
Wind  
Wind Speed 6 mph (NE)    
Max Wind Speed 17 mph    
Max Gust Speed 23 mph    
Visibility 10 miles    
Events      
T = Trace of Precipitation, MM = Missing Value Source: NWS Daily Summary

Daily Weather History Graph

Daily Weather History Graph

Search for Another Location

Airport or City:

Trip Planner

Search our weather history database for the weather conditions in past years. The results will help you decide how hot, cold, wet, or windy it might be!

Date:

Astronomy

May. 23, 2013 Rise Set
Actual Time 6:07 AM CDT 8:40 PM CDT
Civil Twilight 5:36 AM CDT 9:11 PM CDT
Nautical Twilight 4:57 AM CDT 9:49 PM CDT
Astronomical Twilight 4:15 AM CDT 10:32 PM CDT
Moon 7:14 PM CDT (5/23) 4:52 AM CDT (5/23)
Length of Visible Light 15h 34m
Length of Day
14h 33m
Waxing Gibbous, 97% of the Moon is Illuminated
May 23
Waxing Gibbous
May 24
Full
May 31
Last Quarter
Jun 8
New
Jun 16
First Quarter

Hourly Weather History & Observations

Time (CDT) Temp. Dew Point Humidity Pressure Visibility Wind Dir Wind Speed Gust Speed Precip Events Conditions
12:52 AM 54.0 °F 50.0 °F 86% 30.01 in 10.0 mi Calm Calm - N/A   Clear
1:52 AM 53.1 °F 48.9 °F 86% 30.01 in 10.0 mi NNW 3.5 mph - N/A   Clear
2:52 AM 53.1 °F 48.9 °F 86% 30.02 in 10.0 mi Calm Calm - N/A   Clear
3:52 AM 52.0 °F 48.9 °F 89% 30.04 in 10.0 mi Calm Calm - N/A   Clear
4:52 AM 51.1 °F 48.0 °F 89% 30.07 in 10.0 mi Calm Calm - N/A   Clear
5:52 AM 51.1 °F 48.0 °F 89% 30.09 in 10.0 mi Calm Calm - N/A   Clear
6:52 AM 52.0 °F 48.0 °F 86% 30.12 in 10.0 mi North 6.9 mph - N/A   Partly Cloudy
7:08 AM 51.8 °F 48.2 °F 88% 30.12 in 10.0 mi NNE 5.8 mph - N/A   Mostly Cloudy
7:52 AM 54.0 °F 50.0 °F 86% 30.14 in 10.0 mi NNE 4.6 mph - N/A   Overcast
8:52 AM 55.9 °F 50.0 °F 80% 30.15 in 10.0 mi North 9.2 mph 16.1 mph N/A   Overcast
9:52 AM 59.0 °F 51.1 °F 75% 30.14 in 10.0 mi NNE 11.5 mph - N/A   Overcast
10:52 AM 60.1 °F 51.1 °F 72% 30.16 in 10.0 mi NE 12.7 mph - N/A   Overcast
11:18 AM 60.8 °F 51.8 °F 72% 30.18 in 10.0 mi NE 10.4 mph - N/A   Overcast
11:52 AM 62.1 °F 52.0 °F 70% 30.17 in 10.0 mi NE 10.4 mph - N/A   Overcast
12:52 PM 64.9 °F 52.0 °F 63% 30.18 in 10.0 mi ENE 5.8 mph - N/A   Scattered Clouds
1:09 PM 64.4 °F 51.8 °F 64% 30.18 in 10.0 mi NNE 4.6 mph - N/A   Mostly Cloudy
1:21 PM 64.4 °F 51.8 °F 64% 30.18 in 10.0 mi ESE 5.8 mph - N/A   Scattered Clouds
1:52 PM 66.9 °F 53.1 °F 61% 30.17 in 10.0 mi ENE 4.6 mph - N/A   Partly Cloudy
2:52 PM 69.1 °F 53.1 °F 57% 30.16 in 10.0 mi NE 9.2 mph 16.1 mph N/A   Clear
3:52 PM 70.0 °F 54.0 °F 57% 30.15 in 10.0 mi NE 8.1 mph 16.1 mph N/A   Clear
4:52 PM 69.1 °F 54.0 °F 58% 30.15 in 10.0 mi ENE 9.2 mph - N/A   Partly Cloudy
5:52 PM 69.1 °F 54.0 °F 58% 30.17 in 9.0 mi ENE 10.4 mph - N/A   Partly Cloudy
6:52 PM 68.0 °F 53.1 °F 59% 30.16 in 10.0 mi ENE 8.1 mph - N/A   Partly Cloudy
7:52 PM 66.0 °F 53.1 °F 63% 30.15 in 10.0 mi ENE 9.2 mph - N/A   Scattered Clouds
8:52 PM 62.1 °F 53.1 °F 72% 30.15 in 10.0 mi ENE 5.8 mph - N/A   Clear
9:52 PM 55.9 °F 52.0 °F 87% 30.17 in 10.0 mi NE 5.8 mph - N/A   Clear
10:52 PM 59.0 °F 53.1 °F 81% 30.20 in 10.0 mi ESE 4.6 mph - N/A   Clear
11:52 PM 55.0 °F 52.0 °F 89% 30.21 in 10.0 mi Calm Calm - N/A   Clear